Regional Weather Roundup
Issued by NWS Little Rock, AR

Home | Current Version | Previous Version | Graphics & Text | Print | Product List | Glossary On
Versions: 1 2 3 4 5 6 7 8 9 10 11 12 13 14 15 16 17 18 19 20 21 22 23 24 25 26 27 28 29 30 31 32
000
ASUS44 KLZK 280612
RWRLZK

WEATHER ROUNDUP FOR ARKANSAS
NATIONAL WEATHER SERVICE LITTLE ROCK AR
100 AM CDT WED JUN 28 2017

NOTE: "FAIR" INDICATES FEW OR NO CLOUDS BELOW 12,000 FEET WITH NO
SIGNIFICANT WEATHER AND/OR OBSTRUCTIONS TO VISIBILITY.

ARZ001-003-010-029-280700-
NORTHWEST ARKANSAS

CITY           SKY/WX    TMP DP  RH WIND       PRES   REMARKS
FAYETTEVILLE   CLEAR     70  61  73 S3        30.02S
6HR MIN TEMP:  70; 6HR MAX TEMP:  80;

FORT SMITH     CLEAR     71  66  84 NE6       30.00S
6HR MIN TEMP:  71; 6HR MAX TEMP:  85;

HARRISON       CLEAR     66  62  87 SE5       30.05S
6HR MIN TEMP:  66; 6HR MAX TEMP:  79;

BENTONVILLE    CLEAR     70  61  73 S7        30.02F
6HR MIN TEMP:  70; 6HR MAX TEMP:  82;

ROGERS         CLEAR     70  62  76 SE8       30.02F
6HR MIN TEMP:  70; 6HR MAX TEMP:  82;

SILOAM SPGS    CLEAR     70  61  73 S7        30.01F
6HR MIN TEMP:  70; 6HR MAX TEMP:  82;

HIGHFILL       CLEAR     70  62  76 S9        30.01F
6HR MIN TEMP:  70; 6HR MAX TEMP:  83;

$$

ARZ004-005-016-280700-
NORTH CENTRAL ARKANSAS

CITY           SKY/WX    TMP DP  RH WIND       PRES   REMARKS
BATESVILLE     CLEAR     70  63  78 SE3       30.04F
6HR MIN TEMP:  70; 6HR MAX TEMP:  81;

FLIPPIN        CLEAR     68  59  73 SE3       30.02S
MTN HOME       CLEAR     67  62  84 SE3       30.04S
6HR MIN TEMP:  67; 6HR MAX TEMP:  80;

$$

ARZ040-041-280700-
WEST CENTRAL ARKANSAS

CITY           SKY/WX    TMP DP  RH WIND       PRES   REMARKS
MENA           CLEAR     66  64  94 CALM      30.03S
MOUNT IDA      CLEAR     69  63  81 CALM      30.01S
6HR MIN TEMP:  69; 6HR MAX TEMP:  83;

$$

ARZ009-017-025-026-028-280700-
NORTHEAST ARKANSAS

CITY           SKY/WX    TMP DP  RH WIND       PRES   REMARKS
JONESBORO      CLEAR     69  66  90 E3        30.04F
6HR MIN TEMP:  68; 6HR MAX TEMP:  82;

WALNUT RIDGE   CLEAR     70  63  78 SE7       30.04F
6HR MIN TEMP:  70; 6HR MAX TEMP:  79;

BLYTHEVILLE    CLEAR     70  66  87 SE5       30.06F
6HR MIN TEMP:  70; 6HR MAX TEMP:  81;

$$

ARZ022-023-033-042-044-280700-
CENTRAL ARKANSAS

CITY           SKY/WX    TMP DP  RH WIND       PRES   REMARKS
LITTLE ROCK    PTCLDY    69  67  93 S3        30.02F
6HR MIN TEMP:  69; 6HR MAX TEMP:  82;

N LITTLE ROCK    N/A     72  65  79 SE5       30.01F
6HR MIN TEMP:  72; 6HR MAX TEMP:  81;

JACKSONVILLE   CLEAR     67  67  99 NE3       30.01F
6HR MIN TEMP:  67; 6HR MAX TEMP:  83;

CONWAY           N/A     70  66  88 CALM      30.01S
SEARCY         CLEAR     67  67 100 CALM      30.05F
6HR MIN TEMP:  67; 6HR MAX TEMP:  82;

HOT SPRINGS    CLEAR     71  66  84 E5        30.02F
6HR MIN TEMP:  70; 6HR MAX TEMP:  83;

RUSSELLVILLE   CLEAR     69  65  86 CALM      30.01S
6HR MIN TEMP:  68; 6HR MAX TEMP:  82;

CLINTON        FAIR      64  63  94 CALM      30.05S
$$

ARZ036-280700-
EAST ARKANSAS

CITY           SKY/WX    TMP DP  RH WIND       PRES   REMARKS
WEST MEMPHIS   PTCLDY    72  66  81 SE5       30.03F
6HR MIN TEMP:  69; 6HR MAX TEMP:  83;

$$

ARZ050-053-066-070-073-280700-
SOUTHWEST ARKANSAS

CITY           SKY/WX    TMP DP  RH WIND       PRES   REMARKS
ARKADELPHIA    FAIR      68  67  96 CALM      30.02F
6HR MIN TEMP:  68; 6HR MAX TEMP:  84;

CAMDEN         PTCLDY    68  64  88 CALM      30.01F
TEXARKANA      PTCLDY    71  67  87 E3        30.00F
6HR MIN TEMP:  70; 6HR MAX TEMP:  84;

EL DORADO      CLEAR     68  66  93 CALM      30.02S
6HR MIN TEMP:  68; 6HR MAX TEMP:  84;

DE QUEEN       CLEAR     70  68  93 E3        29.99R
6HR MIN TEMP:  69; 6HR MAX TEMP:  86;

$$

ARZ056-057-069-280700-
SOUTHEAST ARKANSAS

CITY           SKY/WX    TMP DP  RH WIND       PRES   REMARKS
PINE BLUFF     CLEAR     69  67  93 CALM      30.02F
6HR MIN TEMP:  68; 6HR MAX TEMP:  83;

STUTTGART      CLEAR     73  57  56 E5        30.03F
6HR MIN TEMP:  73; 6HR MAX TEMP:  82;

MONTICELLO     MOCLDY    69  66  90 CALM      30.02F
6HR MIN TEMP:  68; 6HR MAX TEMP:  84;


$$






USA.gov is the U.S. government's official web portal to all federal, state and local government web resources and services.